Location: Berkeley
(37.8716°N, 122.2727°W)
Time: 22:51:14
(UTC-07:00)

Transit 2A Rocket - All Passes

Search period start: 07 June 2026 00:00
Search period end: 17 June 2026 00:00
Orbit: 589 x 894 km, 66.7° (Epoch: 7 June)

Date Brightness Start Highest point End Pass type
(mag) Time Alt. Az. Time Alt. Az. Time Alt. Az.
7 Jun - 00:22:35 10° NW 00:26:18 28° WSW 00:29:57 10° S visible
7 Jun - 13:10:22 10° S 13:15:11 30° ESE 13:19:42 10° NE daylight
7 Jun - 14:52:29 10° WSW 14:57:27 35° NW 15:02:04 10° N daylight
7 Jun - 21:55:51 10° NNE 21:57:57 13° NE 22:00:01 10° ENE visible
7 Jun - 23:36:26 10° NW 23:40:44 63° WSW 23:44:55 10° SSE visible
8 Jun - 12:26:26 10° SE 12:29:40 16° ESE 12:32:46 10° ENE daylight
8 Jun - 14:06:07 10° SW 14:11:36 64° WNW 14:16:39 10° NNE daylight
8 Jun - 22:50:43 10° NNW 22:55:00 59° ENE 22:59:13 10° SE visible
9 Jun - 00:35:55 10° W 00:36:41 10° WSW 00:37:28 10° WSW visible
9 Jun - 13:20:20 10° SSW 13:25:52 69° ESE 13:30:57 10° NNE daylight
9 Jun - 15:05:09 10° W 15:08:35 17° NW 15:11:52 10° N daylight
9 Jun - 22:05:20 10° N 22:09:09 29° NE 22:12:51 10° ESE visible
9 Jun - 23:47:51 10° WNW 23:51:16 23° WSW 23:54:38 10° SSW visible
10 Jun - 12:35:11 10° S 12:40:13 36° ESE 12:44:54 10° NE daylight
10 Jun - 14:17:52 10° WSW 14:22:34 29° NW 14:26:57 10° N daylight
10 Jun - 21:20:29 10° N 21:23:06 15° NE 21:25:42 10° E visible
10 Jun - 23:01:32 10° NW 23:05:43 50° WSW 23:09:51 10° S visible
11 Jun - 11:50:53 10° SSE 11:54:39 19° ESE 11:58:16 10° ENE daylight
11 Jun - 13:31:19 10° SW 13:36:41 53° WNW 13:41:37 10° NNE daylight
11 Jun - 22:15:43 10° NNW 22:20:02 73° ENE 22:24:18 10° SSE visible
12 Jun - 12:45:23 10° SSW 12:50:55 82° ESE 12:55:59 10° NNE daylight
12 Jun - 14:30:53 10° W 14:33:45 15° NW 14:36:30 10° NNW daylight
12 Jun - 21:30:14 10° N 21:34:13 34° NE 21:38:07 10° ESE visible
12 Jun - 23:13:13 10° WNW 23:16:13 19° WSW 23:19:12 10° SSW visible
13 Jun - 12:00:03 10° S 12:05:14 43° ESE 12:10:03 10° NE daylight
13 Jun - 13:43:18 10° WSW 13:47:41 25° NW 13:51:47 10° N daylight
13 Jun - 20:45:12 10° N 20:48:14 18° NE 20:51:13 10° E daylight
13 Jun - 22:26:40 10° NW 22:30:42 40° WSW 22:34:42 10° S visible
14 Jun - 11:15:28 10° SSE 11:19:39 23° ESE 11:23:37 10° ENE daylight
14 Jun - 12:56:34 10° SW 13:01:45 44° WNW 13:06:33 10° NNE daylight
14 Jun - 21:40:44 10° NNW 21:45:03 90° W 21:49:20 10° SSE visible
15 Jun - 10:32:38 10° ESE 10:34:11 11° ESE 10:35:41 10° E daylight
15 Jun - 12:10:28 10° SSW 12:15:57 84° WNW 12:21:00 10° NNE daylight
15 Jun - 13:56:50 10° WNW 13:58:55 12° NW 14:00:57 10° NNW daylight
15 Jun - 20:55:10 10° NNW 20:59:17 42° ENE 21:03:20 10° SE visible
15 Jun - 22:38:41 10° WNW 22:41:09 15° WSW 22:43:38 10° SW visible
16 Jun - 11:24:57 10° S 11:30:15 51° ESE 11:35:09 10° NE daylight
16 Jun - 13:08:47 10° W 13:12:47 21° NW 13:16:35 10° N daylight
16 Jun - 20:09:58 10° N 20:13:20 21° NE 20:16:39 10° ESE daylight
16 Jun - 21:51:50 10° NW 21:55:39 32° WSW 21:59:29 10° S visible
